Content
SEND FEEDBACK

Daily
Averages
Monthly
Summary
Saudi Arabia

AL MULTASA, SAUDI ARABIA


Home > Middle East > Saudi Arabia
Elevation: 36 feet     Latitude: 24 01N     Longitude: 038 13E

WEATHER
 
SELECT A DAY
Number of Records: 179,815;   Date Range: 7/1/96 - 10/21/14
 
SHARE

PRINT THIS DATA

[ ← Previous Day ]
WEATHER ALMANAC - JANUARY 23, 2013
[ Next Day → ]
[ °C ]   °F
Weather ElementAverageHighLow
Temperature74.8 °F89.6 °F (3:00 pm)62.6 °F (3:00 am)
Dewpoint57.3 °F69.8 °F (8:00 pm)50 °F (7:00 am)
Humidity55.4 %78 % (12:00 am)24 % (12:00 pm)
Barometer29.95 in30.01 in (10:00 am)29.92 in (5:00 am)
Wind Speed5.2 mph16.1 mph (4:00 pm)
Weather ElementAverage
Visibility5.9 mi
Wind DirectionSSE (152.8 °)

Weather ElementTotal
Precipitation---
Cooling Degree Days11.1 (Base 65)
Growing Degree Days26.1 (Base 50)
Averaged from 31 records on January 23, 2013
WEATHER CONDITIONS BREAKOUT
WIND DIRECTION BREAKOUT
WEATHER BY HOUR - JANUARY 23, 2013
[ °C ]   °F
Local TimeTemperatureDewpointHumidityBarometerVisibilityWind DirectionWind SpeedGust SpeedPrecipitationEventsConditions
12:00 AM68.0 °F60.8 °F78 %29.95 inNNW (340°)2.3 mphClear
1:00 AM66.2 °F59.0 °F78 %29.95 inEast (90°)6.9 mphClear
2:00 AM66.2 °F57.2 °F73 %29.95 inCalmClear
3:00 AM63.0 °F54.0 °F63 %29.96 in6.0 miNE (50°)2.3 mph
3:00 AM62.6 °F53.6 °F72 %29.95 inNE (50°)2.3 mphClear
4:00 AM62.6 °F53.6 °F72 %29.95 inNNE (20°)4.6 mphClear
5:00 AM62.6 °F51.8 °F68 %29.92 inNNE (20°)6.9 mphClear
6:00 AM62.6 °F53.6 °F72 %29.95 inCalmClear
6:00 AM63.0 °F54.0 °F63 %29.95 in6.0 miCalm
7:00 AM62.6 °F50.0 °F63 %29.95 inESE (110°)4.6 mphClear
8:00 AM62.6 °F50.0 °F63 %29.98 in5.0 miEast (80°)4.6 mph
9:00 AM69.0 °F52.0 °F44 %30.00 in5.0 miNE (40°)3.5 mphHaze
9:00 AM68.0 °F51.8 °F56 %29.98 in5.0 miNE (40°)3.5 mph
10:00 AM75.2 °F55.4 °F50 %30.01 inNorth (360°)2.3 mphClear
11:00 AM80.6 °F53.6 °F39 %30.01 in6.2 miCalmScattered Clouds
12:00 PM84.2 °F53.6 °F35 %29.98 in6.2 miCalmScattered Clouds
12:00 PM85.0 °F54.0 °F24 %29.98 in6.0 miCalmScattered Clouds
1:00 PM86.0 °F55.4 °F35 %29.95 in6.2 miCalmScattered Clouds
2:00 PM87.8 °F57.2 °F35 %29.92 in6.2 miWSW (240°)11.5 mphPartly Cloudy
3:00 PM89.0 °F59.0 °F26 %29.92 in6.0 miWSW (240°)11.5 mphScattered Clouds
3:00 PM89.6 °F59.0 °F36 %29.92 in6.2 miWSW (240°)11.5 mphScattered Clouds
4:00 PM87.8 °F55.4 °F33 %29.92 inSW (230°)16.1 mphClear
5:00 PM87.8 °F55.4 °F33 %29.92 inSW (230°)13.8 mphClear
6:00 PM84.2 °F55.4 °F37 %29.92 inWSW (240°)11.5 mphClear
6:00 PM84.0 °F55.0 °F27 %29.94 in6.0 miWSW (240°)11.5 mphClear
7:00 PM80.6 °F64.4 °F58 %29.95 inWest (270°)4.6 mphClear
8:00 PM77.0 °F69.8 °F78 %29.95 inWest (270°)2.3 mphClear
9:00 PM75.0 °F68.0 °F73 %29.97 in6.0 miWSW (240°)6.9 mph
9:00 PM75.2 °F68.0 °F78 %29.95 inWSW (240°)6.9 mphClear
10:00 PM75.2 °F68.0 °F78 %29.95 inWest (270°)2.3 mphClear
11:00 PM75.2 °F68.0 °F78 %29.95 inWest (280°)6.9 mphClear
Hourly data recorded from OEYN, located miles away from Al Multasa, Saudi Arabia







STORIES FROM OUR PARTNERS